TimeCST,TemperatureF,Dew PointF,Humidity,Sea Level PressureIn,VisibilityMPH,Wind Direction,Wind SpeedMPH,Gust SpeedMPH,PrecipitationIn,Events,Conditions,WindDirDegrees,DateUTC
12:15 AM,36.5,31.1,81,29.86,10.0,SE,11.5,-,N/A,,Clear,140,2013-02-18 06:15:00
12:35 AM,36.9,31.3,80,29.85,10.0,SE,11.5,-,N/A,,Clear,140,2013-02-18 06:35:00
12:55 AM,36.9,31.1,80,29.85,10.0,SE,12.7,-,N/A,,Clear,140,2013-02-18 06:55:00
1:15 AM,36.7,31.1,80,29.84,10.0,SE,12.7,-,N/A,,Clear,140,2013-02-18 07:15:00
1:35 AM,36.7,31.1,80,29.83,10.0,SE,10.4,-,N/A,,Clear,140,2013-02-18 07:35:00
1:55 AM,36.9,31.5,81,29.83,10.0,SE,10.4,-,N/A,,Clear,140,2013-02-18 07:55:00
2:15 AM,36.5,31.5,82,29.82,10.0,SE,8.1,-,N/A,,Clear,130,2013-02-18 08:15:00
2:35 AM,36.3,31.3,82,29.82,10.0,SE,8.1,-,N/A,,Clear,140,2013-02-18 08:35:00
2:55 AM,36.1,31.5,83,29.80,10.0,SE,9.2,-,N/A,,Clear,130,2013-02-18 08:55:00
3:15 AM,36.3,31.5,83,29.79,10.0,SE,9.2,-,N/A,,Clear,140,2013-02-18 09:15:00
3:35 AM,36.5,31.5,82,29.78,10.0,SE,8.1,-,N/A,,Clear,140,2013-02-18 09:35:00
3:55 AM,36.7,31.6,82,29.78,10.0,SSE,9.2,-,N/A,,Clear,150,2013-02-18 09:55:00
4:15 AM,36.5,31.8,83,29.77,10.0,SSE,10.4,-,N/A,,Clear,150,2013-02-18 10:15:00
4:35 AM,37.2,32.0,81,29.76,10.0,SSE,10.4,-,N/A,,Clear,150,2013-02-18 10:35:00
4:55 AM,37.4,32.0,81,29.76,10.0,SSE,10.4,-,N/A,,Clear,150,2013-02-18 10:55:00
5:15 AM,38.1,32.0,79,29.75,10.0,SSE,10.4,-,N/A,,Clear,150,2013-02-18 11:15:00
5:35 AM,37.6,32.0,80,29.75,10.0,SE,9.2,-,N/A,,Clear,140,2013-02-18 11:35:00
5:55 AM,38.3,32.2,79,29.73,10.0,SSE,9.2,-,N/A,,Clear,150,2013-02-18 11:55:00
6:15 AM,38.8,32.5,78,29.72,10.0,SSE,11.5,-,N/A,,Clear,160,2013-02-18 12:15:00
6:35 AM,39.7,33.1,77,29.72,10.0,SSE,10.4,-,N/A,,Clear,160,2013-02-18 12:35:00
6:55 AM,43.0,34.2,71,29.72,10.0,South,13.8,-,N/A,,Clear,170,2013-02-18 12:55:00
7:15 AM,44.6,34.7,68,29.71,10.0,South,16.1,24.2,N/A,,Clear,170,2013-02-18 13:15:00
7:35 AM,45.5,35.1,67,29.71,10.0,South,18.4,25.3,N/A,,Clear,170,2013-02-18 13:35:00
7:55 AM,46.0,35.6,67,29.72,10.0,South,17.3,-,N/A,,Clear,180,2013-02-18 13:55:00
8:15 AM,47.5,36.3,65,29.71,10.0,South,17.3,23.0,N/A,,Clear,170,2013-02-18 14:15:00
8:35 AM,47.7,36.5,65,29.71,10.0,South,15.0,21.9,N/A,,Clear,180,2013-02-18 14:35:00
8:55 AM,49.1,37.4,64,29.70,10.0,South,15.0,25.3,N/A,,Clear,180,2013-02-18 14:55:00
9:15 AM,50.0,38.1,64,29.69,10.0,South,17.3,27.6,N/A,,Clear,190,2013-02-18 15:15:00
9:35 AM,51.6,39.2,63,29.70,10.0,South,15.0,24.2,N/A,,Clear,190,2013-02-18 15:35:00
9:55 AM,51.8,39.4,63,29.70,10.0,SSW,21.9,26.5,N/A,,Clear,200,2013-02-18 15:55:00
10:15 AM,51.8,39.9,64,29.69,10.0,SSW,17.3,23.0,N/A,,Scattered Clouds,200,2013-02-18 16:15:00
10:35 AM,53.4,40.6,62,29.69,10.0,South,16.1,26.5,N/A,,Mostly Cloudy,190,2013-02-18 16:35:00
10:55 AM,54.9,41.7,61,29.68,10.0,South,16.1,25.3,N/A,,Mostly Cloudy,190,2013-02-18 16:55:00
11:15 AM,55.0,42.1,62,29.68,10.0,South,16.1,26.5,N/A,,Overcast,190,2013-02-18 17:15:00
11:35 AM,54.7,42.3,63,29.68,10.0,South,11.5,19.6,N/A,,Overcast,190,2013-02-18 17:35:00
11:55 AM,55.0,42.8,63,29.66,10.0,South,13.8,21.9,N/A,,Overcast,190,2013-02-18 17:55:00
12:15 PM,55.6,43.2,63,29.65,10.0,South,13.8,-,N/A,,Overcast,180,2013-02-18 18:15:00
12:35 PM,55.8,43.7,64,29.63,10.0,South,17.3,23.0,N/A,,Overcast,180,2013-02-18 18:35:00
12:55 PM,55.9,44.1,64,29.62,10.0,South,16.1,28.8,N/A,,Overcast,180,2013-02-18 18:55:00
1:15 PM,55.9,44.6,66,29.60,10.0,South,19.6,27.6,N/A,,Overcast,180,2013-02-18 19:15:00
1:35 PM,54.5,45.5,72,29.60,10.0,South,18.4,27.6,N/A,,Drizzle,180,2013-02-18 19:35:00
1:55 PM,53.8,46.4,76,29.59,7.0,South,17.3,27.6,N/A,Rain,Light Rain,180,2013-02-18 19:55:00
2:15 PM,52.9,46.8,80,29.58,10.0,South,15.0,-,N/A,,Drizzle,170,2013-02-18 20:15:00
2:35 PM,52.0,46.9,83,29.56,10.0,South,13.8,-,N/A,Rain,Light Rain,170,2013-02-18 20:35:00
2:55 PM,51.8,47.3,85,29.54,10.0,South,17.3,24.2,0.01,,Light Drizzle,170,2013-02-18 20:55:00
3:15 PM,51.4,46.9,85,29.53,7.0,South,15.0,-,N/A,,Light Drizzle,170,2013-02-18 21:15:00
3:35 PM,51.8,46.4,82,29.52,10.0,SSE,17.3,26.5,N/A,,Overcast,160,2013-02-18 21:35:00
3:55 PM,51.6,46.4,82,29.50,7.0,SSE,18.4,28.8,N/A,Rain,Rain,160,2013-02-18 21:55:00
4:15 PM,51.1,46.9,86,29.48,7.0,South,23.0,31.1,0.01,Rain,Light Rain,170,2013-02-18 22:15:00
4:35 PM,50.5,47.3,89,29.48,7.0,South,20.7,28.8,0.03,Rain,Light Rain,170,2013-02-18 22:35:00
4:55 PM,50.9,47.3,87,29.48,7.0,South,16.1,24.2,0.05,Rain,Rain,180,2013-02-18 22:55:00
5:15 PM,43.3,39.4,86,29.55,3.0,WNW,16.1,38.0,0.13,Rain,Heavy Rain,300,2013-02-18 23:15:00
5:35 PM,41.0,38.7,91,29.57,4.0,NW,15.0,24.2,0.21,Rain,Rain,310,2013-02-18 23:35:00
5:55 PM,40.3,37.8,91,29.61,10.0,WNW,15.0,24.2,0.22,Rain,Rain,300,2013-02-18 23:55:00
6:15 PM,38.8,35.8,89,29.64,10.0,NW,18.4,31.1,N/A,,Drizzle,310,2013-02-19 00:15:00
6:35 PM,37.6,34.7,89,29.66,10.0,NW,16.1,23.0,N/A,,Light Drizzle,310,2013-02-19 00:35:00
6:55 PM,36.7,33.8,89,29.68,7.0,WNW,13.8,26.5,N/A,Rain,Light Rain,290,2013-02-19 00:55:00
7:15 PM,36.5,33.4,89,29.70,10.0,WNW,17.3,26.5,N/A,Rain,Light Rain,290,2013-02-19 01:15:00
7:35 PM,36.1,33.3,89,29.70,10.0,WNW,15.0,23.0,N/A,Rain,Light Rain,300,2013-02-19 01:35:00
7:55 PM,35.6,32.9,90,29.72,7.0,WNW,17.3,26.5,N/A,Rain,Light Rain,300,2013-02-19 01:55:00
8:15 PM,35.1,31.3,86,29.75,10.0,WNW,23.0,29.9,N/A,,Overcast,290,2013-02-19 02:15:00
8:35 PM,34.5,30.7,86,29.76,10.0,WNW,23.0,34.5,N/A,,Overcast,290,2013-02-19 02:35:00
8:55 PM,33.8,28.8,82,29.79,10.0,WNW,17.3,28.8,N/A,,Overcast,290,2013-02-19 02:55:00
9:15 PM,33.1,26.8,78,29.80,10.0,WNW,21.9,31.1,N/A,,Overcast,290,2013-02-19 03:15:00
9:35 PM,32.9,25.9,75,29.81,10.0,WNW,11.5,25.3,N/A,,Overcast,300,2013-02-19 03:35:00
9:55 PM,32.2,24.1,72,29.83,10.0,WNW,18.4,33.4,N/A,,Overcast,290,2013-02-19 03:55:00
10:15 PM,32.0,23.9,72,29.84,10.0,WNW,15.0,23.0,N/A,,Overcast,290,2013-02-19 04:15:00
10:35 PM,32.0,24.3,73,29.85,10.0,West,16.1,23.0,N/A,,Overcast,280,2013-02-19 04:35:00
10:55 PM,31.5,22.1,68,29.85,10.0,West,17.3,27.6,N/A,,Mostly Cloudy,280,2013-02-19 04:55:00
11:15 PM,31.1,22.8,71,29.87,10.0,WNW,16.1,25.3,N/A,,Overcast,290,2013-02-19 05:15:00
11:35 PM,30.9,20.7,66,29.88,10.0,WNW,16.1,28.8,N/A,,Overcast,290,2013-02-19 05:35:00
11:55 PM,30.6,21.4,69,29.89,10.0,West,18.4,29.9,N/A,,Overcast,280,2013-02-19 05:55:00